Lawton, OK

7:51 AM CDT on July 21, 2017 (GMT -0500)
Lawton-Fort Sill Regional

Weather History for KLAW - October, 2013

Change the Weather History Date:

Monday, October 14, 2013

  Actual Average Record
Temperature  
Mean Temperature 70 °F -  
Max Temperature 75 °F 79 °F 97 °F (2015)
Min Temperature 66 °F 53 °F 36 °F (1969)
Cooling Degree Days 6    
Growing Degree Days 20 (Base 50)    
Moisture  
Dew Point 67 °F    
Average Humidity 90    
Maximum Humidity 97    
Minimum Humidity 82    
Precipitation  
Precipitation 0.24 in - - ()
Sea Level Pressure  
Sea Level Pressure 29.98 in    
Wind  
Wind Speed 10 mph (SSE)    
Max Wind Speed 15 mph    
Max Gust Speed 20 mph    
Visibility 9 miles    
Events Rain    
Averages and records for this station are not official NWS values.
T = Trace of Precipitation, MM = Missing Value Source: NWS Daily Summary

Daily Weather History Graph

Daily Weather History Graph

Search for Another Location

Airport or City:

Trip Planner

Search our weather history database for the weather conditions in past years. The results will help you decide how hot, cold, wet, or windy it might be!

Date:

Astronomy

Oct. 14, 2013 Rise Set
Actual Time 7:38 AM CDT 7:00 PM CDT
Civil Twilight 7:13 AM CDT 7:25 PM CDT
Nautical Twilight 6:44 AM CDT 7:54 PM CDT
Astronomical Twilight 6:14 AM CDT 8:23 PM CDT
Moon 4:21 PM CDT (10/14) 3:07 AM CDT (10/14)
Length of Visible Light 12h 12m
Length of Day
11h 21m
Waxing Gibbous, 79% of the Moon is Illuminated
Oct 14
Waxing Gibbous
Oct 18
Full
Oct 26
Last Quarter
Nov 3
New
Nov 9
First Quarter

Hourly Weather History & Observations

Time (CDT) Temp. Dew Point Humidity Pressure Visibility Wind Dir Wind Speed Gust Speed Precip Events Conditions
12:53 AM 68.0 °F 64.9 °F 90% 30.09 in 10.0 mi SE 13.8 mph - N/A   Clear
1:38 AM 68.0 °F 64.4 °F 88% 30.10 in 10.0 mi SE 12.7 mph - N/A   Mostly Cloudy
1:53 AM 68.0 °F 64.9 °F 90% 30.08 in 10.0 mi SE 11.5 mph - N/A   Overcast
2:08 AM 68.0 °F 64.4 °F 88% 30.11 in 10.0 mi SE 10.4 mph - N/A   Overcast
2:19 AM 69.8 °F 66.2 °F 88% 30.11 in 10.0 mi SE 10.4 mph - N/A   Overcast
2:53 AM 69.1 °F 66.0 °F 90% 30.08 in 10.0 mi SE 9.2 mph - N/A   Overcast
3:28 AM 69.8 °F 64.4 °F 83% 30.08 in 10.0 mi SE 13.8 mph 19.6 mph N/A   Overcast
3:53 AM 69.1 °F 64.9 °F 87% 30.06 in 10.0 mi ESE 9.2 mph - N/A   Overcast
4:49 AM 68.0 °F 64.4 °F 88% 30.08 in 10.0 mi SE 5.8 mph - N/A   Overcast
4:53 AM 68.0 °F 64.9 °F 90% 30.06 in 10.0 mi SE 5.8 mph - N/A   Overcast
5:25 AM 69.8 °F 64.4 °F 83% 30.08 in 10.0 mi SE 6.9 mph - N/A   Overcast
5:53 AM 68.0 °F 64.9 °F 90% 30.05 in 10.0 mi ESE 8.1 mph - N/A   Overcast
6:25 AM 68.0 °F 64.4 °F 88% 30.07 in 9.0 mi ESE 6.9 mph - 0.00 in Rain Light Rain
6:42 AM 66.2 °F 64.4 °F 94% 30.06 in 2.5 mi ESE 8.1 mph - 0.09 in Rain Heavy Rain
6:51 AM 66.2 °F 64.4 °F 94% 30.06 in 6.0 mi ESE 9.2 mph - 0.10 in Rain Light Rain
6:53 AM 66.9 °F 64.9 °F 93% 30.04 in 7.0 mi ESE 8.1 mph - 0.10 in Rain Light Rain
7:53 AM 66.9 °F 64.9 °F 93% 30.03 in 7.0 mi SE 8.1 mph - 0.00 in Rain Light Rain
8:16 AM 66.2 °F 64.4 °F 94% 30.05 in 1.8 mi South 4.6 mph - 0.09 in Rain Heavy Rain
8:23 AM 66.2 °F 64.4 °F 94% 30.05 in 2.5 mi SE 4.6 mph - 0.11 in Rain Rain
8:30 AM 66.2 °F 64.4 °F 94% 30.05 in 4.0 mi SE 5.8 mph - 0.11 in Rain Light Rain
8:53 AM 66.9 °F 66.0 °F 97% 30.03 in 5.0 mi SE 5.8 mph - 0.12 in Rain Rain
9:53 AM 68.0 °F 66.0 °F 93% 30.01 in 10.0 mi SE 10.4 mph - 0.00 in   Overcast
10:53 AM 68.0 °F 66.0 °F 93% 29.99 in 4.0 mi SE 9.2 mph - 0.01 in Rain Light Rain
11:53 AM 69.1 °F 68.0 °F 96% 29.98 in 10.0 mi South 10.4 mph - 0.01 in Rain Light Rain
12:21 PM 71.6 °F 69.8 °F 94% 29.99 in 10.0 mi South 8.1 mph - 0.00 in   Overcast
12:29 PM 71.6 °F 69.8 °F 94% 29.99 in 10.0 mi South 10.4 mph - 0.00 in   Overcast
12:53 PM 71.1 °F 69.1 °F 93% 29.96 in 10.0 mi South 10.4 mph - 0.00 in   Overcast
1:13 PM 73.4 °F 69.8 °F 88% 29.96 in 10.0 mi South 10.4 mph - N/A   Overcast
1:24 PM 73.4 °F 69.8 °F 88% 29.95 in 10.0 mi South 11.5 mph - N/A   Overcast
1:38 PM 73.4 °F 69.8 °F 88% 29.94 in 10.0 mi South 13.8 mph - N/A   Overcast
1:45 PM 73.4 °F 69.8 °F 88% 29.94 in 10.0 mi South 13.8 mph - N/A   Overcast
1:53 PM 73.9 °F 69.1 °F 85% 29.91 in 10.0 mi South 15.0 mph - N/A   Overcast
2:10 PM 73.4 °F 69.8 °F 88% 29.92 in 10.0 mi South 15.0 mph 19.6 mph N/A   Overcast
2:53 PM 75.0 °F 69.1 °F 82% 29.88 in 10.0 mi South 13.8 mph - N/A   Overcast
3:05 PM 75.2 °F 69.8 °F 83% 29.90 in 10.0 mi South 11.5 mph 19.6 mph N/A   Overcast
3:24 PM 75.2 °F 69.8 °F 83% 29.89 in 10.0 mi South 10.4 mph - N/A   Overcast
3:53 PM 73.9 °F 69.1 °F 85% 29.86 in 10.0 mi South 11.5 mph - N/A   Overcast
4:50 PM 73.4 °F 69.8 °F 88% 29.88 in 10.0 mi SSE 15.0 mph - N/A   Overcast
4:53 PM 73.9 °F 69.1 °F 85% 29.85 in 10.0 mi SSE 12.7 mph - N/A   Overcast
5:53 PM 73.9 °F 69.1 °F 85% 29.84 in 10.0 mi SSE 10.4 mph - N/A   Scattered Clouds
6:53 PM 73.0 °F 69.1 °F 87% 29.85 in 10.0 mi SSE 8.1 mph - N/A   Clear
7:49 PM 73.4 °F 69.8 °F 88% 29.88 in 10.0 mi SE 6.9 mph - N/A   Mostly Cloudy
7:53 PM 73.0 °F 70.0 °F 90% 29.86 in 10.0 mi SE 6.9 mph - N/A   Mostly Cloudy
8:25 PM 73.4 °F 69.8 °F 88% 29.88 in 10.0 mi SE 9.2 mph - N/A   Scattered Clouds
8:53 PM 72.0 °F 70.0 °F 93% 29.86 in 10.0 mi SSE 9.2 mph - N/A   Clear
9:53 PM 72.0 °F 70.0 °F 93% 29.89 in 10.0 mi SSE 8.1 mph - N/A   Clear
10:53 PM 72.0 °F 70.0 °F 93% 29.87 in 10.0 mi SE 9.2 mph - N/A   Partly Cloudy
11:53 PM 72.0 °F 69.1 °F 91% 29.88 in 9.0 mi SSE 6.9 mph - N/A   Partly Cloudy